When you browse on this site, cookies collect data to enhance your experience and personalize the content and advertising you see.
Visit our Privacy Policy to learn more. By continuing to use the site, you agree to this use of cookies and data.
  • In Czech Republic
  • List of Countries
  • For 7 days
  • Water Temperature
  • Weather Map
  • Weather Widgets
  • user-avatar
    Login

    Hourly Weather Chublovo

    Today, 22 January, Wednesday

    Time Temperature Precipitation Wind Pressure Humidity
    00:00 -3°C° 0 mm 6 mps 737 mmHg 78%
    01:00 -2°C° 0 mm 5 mps 737 mmHg 78%
    02:00 -2°C° 0 mm 5 mps 737 mmHg 81%
    03:00 -2°C° 0 mm 5 mps 736 mmHg 80%
    04:00 -2°C° 0 mm 5 mps 736 mmHg 80%
    05:00 -2°C° 0 mm 5 mps 735 mmHg 79%
    06:00 -4°C° 0 mm 5 mps 735 mmHg 81%
    07:00 -4°C° 0 mm 5 mps 735 mmHg 82%
    08:00 -3°C° 0 mm 4 mps 734 mmHg 84%
    09:00 -3°C° 0.1 mm 4 mps 734 mmHg 85%
    10:00 -2°C° 0.1 mm 4 mps 734 mmHg 85%
    11:00 -2°C° 0.1 mm 5 mps 733 mmHg 85%
    12:00 -2°C° 0.3 mm 4 mps 733 mmHg 84%
    13:00 -2°C° 0.3 mm 4 mps 733 mmHg 83%
    14:00 -2°C° 0.3 mm 4 mps 733 mmHg 82%
    15:00 -2°C° 0.1 mm 4 mps 733 mmHg 82%
    16:00 -3°C° 0.1 mm 4 mps 733 mmHg 82%
    17:00 -4°C° 0.1 mm 4 mps 733 mmHg 82%
    18:00 -4°C° 0 mm 4 mps 734 mmHg 83%
    19:00 -4°C° 0 mm 4 mps 734 mmHg 83%
    20:00 -5°C° 0 mm 4 mps 735 mmHg 84%
    21:00 -5°C° 0.1 mm 4 mps 735 mmHg 85%
    22:00 -5°C° 0.1 mm 4 mps 735 mmHg 87%
    23:00 -5°C° 0.1 mm 4 mps 736 mmHg 88%

    Tomorrow, 23 January, Thursday

    Time Temperature Precipitation Wind Pressure Humidity
    00:00 -6°C° 0.2 mm 5 mps 736 mmHg 86%
    01:00 -6°C° 0.2 mm 5 mps 737 mmHg 84%
    02:00 -6°C° 0.2 mm 6 mps 738 mmHg 82%
    03:00 -8°C° 0.1 mm 6 mps 738 mmHg 80%
    04:00 -9°C° 0.1 mm 6 mps 739 mmHg 77%
    05:00 -9°C° 0.1 mm 6 mps 739 mmHg 74%
    06:00 -8°C° 0 mm 5 mps 740 mmHg 73%
    07:00 -10°C° 0 mm 5 mps 741 mmHg 72%
    08:00 -9°C° 0 mm 4 mps 741 mmHg 72%
    09:00 -10°C° 0 mm 5 mps 742 mmHg 69%
    10:00 -10°C° 0 mm 5 mps 742 mmHg 66%
    11:00 -8°C° 0 mm 5 mps 742 mmHg 64%
    12:00 -8°C° 0 mm 5 mps 743 mmHg 66%
    13:00 -8°C° 0 mm 5 mps 743 mmHg 68%
    14:00 -8°C° 0 mm 4 mps 743 mmHg 71%
    15:00 -8°C° 0.3 mm 4 mps 743 mmHg 75%
    16:00 -8°C° 0.3 mm 4 mps 744 mmHg 79%
    17:00 -7°C° 0.3 mm 4 mps 744 mmHg 83%
    18:00 -8°C° 0.1 mm 4 mps 744 mmHg 81%
    19:00 -8°C° 0.1 mm 3 mps 745 mmHg 80%
    20:00 -8°C° 0.1 mm 3 mps 745 mmHg 78%
    21:00 -7°C° 0 mm 2 mps 746 mmHg 79%
    22:00 -8°C° 0 mm 2 mps 746 mmHg 79%
    23:00 -8°C° 0 mm 2 mps 746 mmHg 80%

    Day after tomorrow, 24 January, Friday

    Time Temperature Precipitation Wind Pressure Humidity
    00:00 -8°C° 0 mm 2 mps 746 mmHg 80%
    01:00 -7°C° 0 mm 2 mps 746 mmHg 81%
    02:00 -7°C° 0 mm 2 mps 746 mmHg 81%
    03:00 -8°C° 0 mm 3 mps 745 mmHg 83%
    04:00 -7°C° 0 mm 3 mps 744 mmHg 86%
    05:00 -6°C° 0 mm 3 mps 744 mmHg 88%
    06:00 -7°C° 0.1 mm 4 mps 743 mmHg 88%
    07:00 -5°C° 0.1 mm 4 mps 742 mmHg 88%
    08:00 -5°C° 0.1 mm 5 mps 742 mmHg 88%
    09:00 -5°C° 0.3 mm 5 mps 741 mmHg 90%
    10:00 -4°C° 0.3 mm 5 mps 740 mmHg 91%
    11:00 -4°C° 0.3 mm 6 mps 739 mmHg 93%
    12:00 -2°C° 0.1 mm 5 mps 739 mmHg 94%
    13:00 -2°C° 0.1 mm 5 mps 738 mmHg 94%
    14:00 -1°C° 0.1 mm 5 mps 738 mmHg 95%
    15:00 -1°C° 0.3 mm 5 mps 737 mmHg 95%
    16:00 0°C° 0.3 mm 5 mps 737 mmHg 96%
    17:00 +1°C° 0.3 mm 5 mps 736 mmHg 96%
    18:00 +1°C° 0.2 mm 5 mps 736 mmHg 96%
    19:00 +1°C° 0.2 mm 4 mps 736 mmHg 96%
    20:00 0°C° 0.2 mm 4 mps 737 mmHg 96%
    21:00 0°C° 0.1 mm 4 mps 736 mmHg 96%
    22:00 0°C° 0.1 mm 4 mps 736 mmHg 97%
    23:00 +1°C° 0.1 mm 3 mps 736 mmHg 97%

    25 January, Saturday

    Time Temperature Precipitation Wind Pressure Humidity
    00:00 +1°C° 0.2 mm 3 mps 736 mmHg 97%
    01:00 0°C° 0.2 mm 3 mps 736 mmHg 96%
    02:00 0°C° 0.2 mm 3 mps 736 mmHg 96%
    03:00 0°C° 0 mm 3 mps 736 mmHg 94%
    04:00 -2°C° 0 mm 4 mps 736 mmHg 92%
    05:00 -2°C° 0 mm 4 mps 736 mmHg 91%
    06:00 -2°C° 0 mm 4 mps 736 mmHg 88%
    07:00 -2°C° 0 mm 4 mps 736 mmHg 85%
    08:00 -2°C° 0 mm 4 mps 736 mmHg 82%
    09:00 -1°C° 0 mm 4 mps 736 mmHg 81%
    10:00 -1°C° 0 mm 5 mps 735 mmHg 79%
    11:00 -1°C° 0 mm 5 mps 735 mmHg 77%
    12:00 -1°C° 0 mm 5 mps 735 mmHg 78%
    13:00 -2°C° 0 mm 6 mps 734 mmHg 78%
    14:00 -2°C° 0 mm 6 mps 734 mmHg 78%
    15:00 -2°C° 0.4 mm 6 mps 734 mmHg 80%
    16:00 -3°C° 0.4 mm 7 mps 734 mmHg 82%
    17:00 -3°C° 0.4 mm 7 mps 734 mmHg 85%
    18:00 -3°C° 0.2 mm 7 mps 735 mmHg 82%
    19:00 -4°C° 0.2 mm 6 mps 735 mmHg 80%
    20:00 -4°C° 0.2 mm 6 mps 736 mmHg 77%
    21:00 -5°C° 0 mm 6 mps 737 mmHg 78%
    22:00 -5°C° 0 mm 6 mps 737 mmHg 79%
    23:00 -5°C° 0 mm 5 mps 738 mmHg 79%

    26 January, Sunday

    Time Temperature Precipitation Wind Pressure Humidity
    00:00 -5°C° 0 mm 5 mps 739 mmHg 79%
    01:00 -5°C° 0 mm 5 mps 739 mmHg 78%
    02:00 -5°C° 0 mm 5 mps 740 mmHg 78%
    03:00 -6°C° 0 mm 5 mps 741 mmHg 78%
    04:00 -6°C° 0 mm 5 mps 742 mmHg 79%
    05:00 -6°C° 0 mm 5 mps 742 mmHg 79%
    06:00 -5°C° 0 mm 4 mps 743 mmHg 81%
    07:00 -5°C° 0 mm 4 mps 744 mmHg 82%
    08:00 -7°C° 0 mm 4 mps 745 mmHg 83%
    09:00 -5°C° 0 mm 4 mps 746 mmHg 82%
    10:00 -5°C° 0 mm 4 mps 747 mmHg 80%
    11:00 -4°C° 0 mm 4 mps 747 mmHg 78%
    12:00 -4°C° 0 mm 4 mps 748 mmHg 77%
    13:00 -4°C° 0 mm 3 mps 748 mmHg 76%
    14:00 -4°C° 0 mm 3 mps 749 mmHg 75%
    15:00 -4°C° 0 mm 3 mps 749 mmHg 79%
    16:00 -4°C° 0 mm 2 mps 749 mmHg 83%
    17:00 -5°C° 0 mm 2 mps 749 mmHg 86%
    18:00 -5°C° 0 mm 2 mps 750 mmHg 87%
    19:00 -5°C° 0 mm 2 mps 750 mmHg 87%
    20:00 -5°C° 0 mm 2 mps 750 mmHg 87%
    21:00 -4°C° 0 mm 2 mps 750 mmHg 87%
    22:00 -4°C° 0 mm 2 mps 750 mmHg 87%
    23:00 -4°C° 0 mm 2 mps 750 mmHg 86%

    27 January, Monday

    Time Temperature Precipitation Wind Pressure Humidity
    00:00 -4°C° 0.1 mm 2 mps 750 mmHg 89%
    01:00 -3°C° 0.1 mm 2 mps 750 mmHg 91%
    02:00 -4°C° 0.1 mm 3 mps 750 mmHg 94%
    03:00 -4°C° 0.1 mm 3 mps 749 mmHg 94%
    04:00 -4°C° 0.1 mm 3 mps 749 mmHg 94%
    05:00 -2°C° 0.1 mm 3 mps 748 mmHg 94%
    06:00 -2°C° 0.1 mm 3 mps 748 mmHg 95%
    07:00 -2°C° 0.1 mm 3 mps 748 mmHg 95%
    08:00 -2°C° 0.1 mm 3 mps 748 mmHg 96%
    09:00 -1°C° 0 mm 3 mps 748 mmHg 96%
    10:00 -2°C° 0 mm 4 mps 748 mmHg 96%
    11:00 -1°C° 0 mm 4 mps 748 mmHg 95%
    12:00 -1°C° 0 mm 4 mps 748 mmHg 95%
    13:00 -1°C° 0 mm 4 mps 747 mmHg 96%
    14:00 -1°C° 0 mm 4 mps 747 mmHg 96%
    15:00 -2°C° 0 mm 4 mps 746 mmHg 95%
    16:00 -2°C° 0 mm 4 mps 746 mmHg 93%
    17:00 -1°C° 0 mm 3 mps 746 mmHg 92%
    18:00 -1°C° 0 mm 3 mps 745 mmHg 93%
    19:00 -1°C° 0 mm 3 mps 745 mmHg 94%
    20:00 -1°C° 0 mm 3 mps 744 mmHg 95%
    21:00 -2°C° 0.3 mm 4 mps 744 mmHg 96%
    22:00 -2°C° 0.3 mm 4 mps 743 mmHg 96%
    23:00 -2°C° 0.3 mm 4 mps 743 mmHg 97%
    Show more